Location: Napier
(39.4830°S, 176.9170°E)
Time: 03:21:10
(UTC+12:00)

CZ-4 R/B - Pass Details

Date: 15 August 2020
Orbit: 531 x 599 km, 97.7° (Epoch: 20 September)

Event Time Altitude Azimuth Distance (km) Brightness Sun altitude
Exits shadow 19:07:55 12° 23° (NNE) 1,658 3.6 -18.6°
Drops below altitude 10° 19:08:17 10° 20° (NNE) 1,790 3.7 -18.6°
Sets 19:10:34 0° 9° (N) 2,674 4.8 -19.1°
